This is the latest recevied weather packets stored in our database for station/object KD5UMO-1. If no packets are shown the sender has not sent any weather packets the latest 10 day(s).
| Time | Temp. | Humidity | Pressure | Rain* | Wind** | Luminosity | Snow |
|---|---|---|---|---|---|---|---|
| 1777677840 | 18.33° C | 58% | 1015.6 hPa | 0 mm | - | 109 W/m² | - |
| 1777677538 | 18.33° C | 57% | 1015.8 hPa | 0 mm | - | 97 W/m² | - |
| 1777677235 | 18.33° C | 57% | 1015.5 hPa | 0 mm | - | 127 W/m² | - |
| 1777676934 | 18.33° C | 57% | 1015.6 hPa | 0 mm | - | 116 W/m² | - |
| 1777676633 | 18.33° C | 57% | 1015.6 hPa | 0 mm | - | 105 W/m² | - |
| 1777676329 | 18.33° C | 56% | 1015.3 hPa | 0 mm | - | 99 W/m² | - |
| 1777676027 | 18.33° C | 57% | 1015.6 hPa | 0 mm | - | 107 W/m² | - |
| 1777675723 | 18.33° C | 57% | 1015.4 hPa | 0 mm | - | 117 W/m² | - |
| 1777675421 | 18.33° C | 57% | 1015.5 hPa | 0 mm | - | 118 W/m² | - |
| 1777675117 | 18.33° C | 57% | 1015.7 hPa | 0 mm | - | 130 W/m² | - |
| 1777674813 | 18.33° C | 56% | 1015.5 hPa | 0 mm | - | 151 W/m² | - |
| 1777674509 | 18.33° C | 56% | 1015.4 hPa | 0 mm | - | 140 W/m² | - |
| 1777674207 | 18.33° C | 56% | 1015.7 hPa | 0 mm | - | 141 W/m² | - |
| 1777673903 | 18.33° C | 55% | 1015.4 hPa | 0 mm | - | 158 W/m² | - |
| 1777673600 | 18.33° C | 55% | 1015.3 hPa | 0 mm | - | 147 W/m² | - |
| 1777673298 | 18.33° C | 54% | 1015.3 hPa | 0 mm | - | 159 W/m² | - |
| 1777672995 | 18.33° C | 54% | 1015.5 hPa | 0 mm | - | 170 W/m² | - |
| 1777672692 | 18.33° C | 55% | 1015.7 hPa | 0 mm | - | 178 W/m² | - |
| 1777672387 | 18.33° C | 55% | 1015.6 hPa | 0 mm | - | 182 W/m² | - |
| 1777672083 | 18.33° C | 55% | 1015.5 hPa | 0 mm | - | 171 W/m² | - |
| 1777671779 | 18.33° C | 54% | 1015.5 hPa | 0 mm | - | 178 W/m² | - |
| 1777671475 | 18.33° C | 55% | 1015.3 hPa | 0 mm | - | 199 W/m² | - |
| 1777671171 | 18.33° C | 55% | 1015.5 hPa | 0 mm | - | 221 W/m² | - |
| 1777670868 | 18.33° C | 55% | 1015.4 hPa | 0 mm | - | 227 W/m² | - |
| 1777670564 | 18.33° C | 55% | 1015.3 hPa | 0 mm | - | 263 W/m² | - |
* Rain latest hour (hover to see other rain measurements)
** Current wind speed in m/s (hover to see current wind gust speed)